CZ-4 DEB, 26294

Orbit data source: Space-Track

CZ-4 DEB, 26294 is space debris in SSO originally from a launch on Thu, 14 Oct 1999 UTC launched from the Taiyaun Space Center, China (TSC). Debris objects in space refer to the collection of defunct objects orbiting the Earth. Examples of debris include non-operational satellites, rocket bodies, and fragments generated from explosions, collisions, or faulty payload assembly.

Loading next visibility...
Identifier
26294, 1999-057GG
Orbit
SSO
Country
Flag of CNCN / PRC
Related business
Manufacturer
Unknown
Mission
Spacecraft
Bus & Motor
Unknown
Mass
Unknown
Launch date (UTC)
1999-10-14 (26 years ago)
Launch vehicle
Unknown
Launch site
Taiyaun Space Center, China (TSC)
Object type
Payload
Rocket body
Debris
Shape & HBR
Unknown shape, 0.3 m
Radar Cross Section
Medium (>0.1 m² and <1 m²)

Expand to show TLE details & history
Last TLE update: 15 hours ago

TLE from 15 hours ago
0 CZ-4 DEB
1 26294U 99057GG  25296.68142645  .00003310  00000-0  76188-3 0  9993
2 26294  98.4956 358.8542 0078254 190.6102 320.9795 14.54202662347726
Epoch: 2025-10-23T16:21Z
TLE epoch observation values (Epoch: 2025-10-23T16:21:15.245Z)
Latitude
28.67898°
Longitude
-94.13515°
Altitude
672.597 km
Speed
7.546 km/s
True Right ascension
12h 14m 03s
True Declination
28° 31' 58"
Sunlit
Object was in daylight at epoch
Visualization orbit readout
Latitude
Unknown
Longitude
Unknown
Altitude
Unknown
Speed
Unknown
Apparent Right ascension
Unknown
Apparent Declination
Unknown
Sunlit
N/A
Visualization observer readout
Local Sidereal Time
02:08:49
Azimuth
Unknown
Elevation
Unknown
Doppler factor
Unknown
Orbital elements
Apogee altitude
764.518 km
Perigee altitude
653.598 km
Semi-major axis
7,087.195 km
Eccentricity
0.00783
Inclination
98.4956°
RAAN
358.8542°
Arg. of periapsis
190.6102°
True anomaly
320.41061°
Mean anomaly
320.9795°
Eccentric anomaly
320.69549°
Mean motion
3.63774 °/min
Orbital period
98.96 mins
BSTAR
0.00076188
Loading maneuver chart data...
Computing Atmospheric mass density...

Documentation

Showing up to 5 results
|